This is the latest recevied weather packets stored in our database for station/object KK4WXG. If no packets are shown the sender has not sent any weather packets the latest 1 day(s).
| Time | Temp. | Humidity | Pressure | Rain* | Wind** | Luminosity | Snow |
|---|---|---|---|---|---|---|---|
| 1778076981 | 16.11° C | 93% | 1008.7 hPa | 0 mm | - | 139 W/m² | - |
| 1778076679 | 15.56° C | 93% | 1008.9 hPa | 0 mm | - | 111 W/m² | - |
| 1778076376 | 15.56° C | 94% | 1009.1 hPa | 0.51 mm | - | 98 W/m² | - |
| 1778075770 | 15.56° C | 94% | 1008.7 hPa | 0.51 mm | - | 100 W/m² | - |
| 1778075466 | 15.56° C | 94% | 1008.7 hPa | 0.51 mm | - | 103 W/m² | - |
| 1778074556 | 15.56° C | 94% | 1008.7 hPa | 0.51 mm | - | 130 W/m² | - |
| 1778074253 | 15.56° C | 94% | 1009 hPa | 1.27 mm | - | 114 W/m² | - |
| 1778071831 | 15.56° C | 94% | 1009.4 hPa | 1.27 mm | - | 62 W/m² | - |
| 1778071226 | 15.56° C | 93% | 1008.9 hPa | 1.78 mm | - | 50 W/m² | - |
| 1778070924 | 15.56° C | 93% | 1008.8 hPa | 1.27 mm | - | 51 W/m² | - |
| 1778070622 | 15.56° C | 93% | 1009 hPa | 0.51 mm | - | 44 W/m² | - |
| 1778070318 | 15.56° C | 93% | 1009.1 hPa | 1.27 mm | - | 52 W/m² | - |
| 1778069714 | 15.56° C | 92% | 1008.8 hPa | 1.78 mm | - | 41 W/m² | - |
| 1778069108 | 15.56° C | 92% | 1009.1 hPa | 3.05 mm | - | 39 W/m² | - |
| 1778068201 | 15.56° C | 90% | 1009.3 hPa | 1.78 mm | - | 21 W/m² | - |
| 1778067596 | 15.56° C | 88% | 1009.3 hPa | 2.29 mm | - | 15 W/m² | - |
| 1778066990 | 16.11° C | 87% | 1009.5 hPa | 1.78 mm | - | 13 W/m² | - |
| 1778066083 | 16.67° C | 82% | 1009.2 hPa | 1.78 mm | - | 17 W/m² | - |
| 1778064870 | 17.22° C | 76% | 1008.9 hPa | 0 mm | - | 5 W/m² | - |
| 1778062146 | 17.78° C | 73% | 1008 hPa | 0 mm | - | 1 W/m² | - |
| 1778060936 | 18.33° C | 69% | 1008.1 hPa | 0 mm | - | 0 W/m² | - |
| 1778060635 | 18.89° C | 67% | 1007.9 hPa | 0 mm | - | 0 W/m² | - |
| 1778060332 | 18.89° C | 66% | 1007.9 hPa | 0 mm | - | 0 W/m² | - |
| 1778060030 | 18.89° C | 65% | 1007.9 hPa | 0 mm | - | 0 W/m² | - |
| 1778058820 | 18.89° C | 64% | 1008.1 hPa | 0 mm | - | 0 W/m² | - |
* Rain latest hour (hover to see other rain measurements)
** Current wind speed in m/s (hover to see current wind gust speed)